SL-16 DEB, 22341

Orbit data source: Space-Track

SL-16 DEB, 22341 is space debris in LEO originally from a launch on Fri, 25 Dec 1992 UTC launched from the Tyuratam Missile And Space Complex (TTMTR). Debris objects in space refer to the collection of defunct objects orbiting the Earth. Examples of debris include non-operational satellites, rocket bodies, and fragments generated from explosions, collisions, or faulty payload assembly.

Loading next visibility...
Identifier
22341, 1992-093AE
Orbit
LEO
Country
Flag of CISCIS
Related business
Manufacturer
Unknown
Mission
Spacecraft
Bus & Motor
Unknown
Mass
Unknown
Launch date (UTC)
1992-12-25 (33 years ago)
Launch vehicle
Unknown
Launch site
Tyuratam Missile And Space Complex (TTMTR)
Object type
Payload
Rocket body
Debris
Shape & HBR
Unknown shape, 0.1 m
Radar Cross Section
Small (<0.1 m²)

Expand to show TLE details & history
Last TLE update: 1 day ago

TLE from 1 day ago
0 SL-16 DEB
1 22341U 92093AE  26126.44178677  .00000229  00000-0  18961-3 0  9997
2 22341  70.7449 197.6122 0137704  67.9395 305.2815 13.94751989691886
Epoch: 2026-05-06T10:36Z
TLE epoch observation values (Epoch: 2026-05-06T10:36:10.376Z)
Latitude
11.20726°
Longitude
178.21448°
Altitude
856.57 km
Speed
7.454 km/s
True Right ascension
13h 26m 14s
True Declination
11° 08' 34"
Sunlit
Object was in full shadow at epoch
Visualization orbit readout
Latitude
Unknown
Longitude
Unknown
Altitude
Unknown
Speed
Unknown
Apparent Right ascension
Unknown
Apparent Declination
Unknown
Sunlit
N/A
Visualization observer readout
Local Sidereal Time
18:15:24
Azimuth
Unknown
Elevation
Unknown
Doppler factor
Unknown
Orbital elements
Apogee altitude
1,010.355 km
Perigee altitude
809.634 km
Semi-major axis
7,288.131 km
Eccentricity
0.01377
Inclination
70.7449°
RAAN
197.6122°
Arg. of periapsis
67.9395°
True anomaly
303.98055°
Mean anomaly
305.2815°
Eccentric anomaly
304.63231°
Mean motion
3.48834 °/min
Orbital period
103.2 mins
BSTAR
0.00018961
Loading maneuver chart data...
Computing Atmospheric mass density...
Loading historical data...
Loading historical data...
Loading historical data...
Loading historical data...
Loading historical data...
Loading historical data...
Loading historical data...

Documentation

Showing up to 5 results
|